Terminal Aerodrome Forecast
Issued by NWS

Current Version | Previous Version | Text Only | Print | Product List | Glossary Off
Versions: 1 2 3 4 5 6 7 8 9 10 11 12 13 14 15 16 17 18 19 20 21 22 23 24 25

000
FTUS41 KPBZ 051600 AAA
TAFMGW
TAF AMD
KMGW 051600Z 0516/0612 36004KT P6SM -RA BKN007 BKN010
     FM051700 33006KT P6SM BKN025
      TEMPO 0520/0522 -SHRA BKN015
     FM060400 35005KT P6SM VCSH BKN008=

USA.gov is the U.S. government's official web portal to all federal, state and local government web resources and services.